TimeEDT,TemperatureF,Dew PointF,Humidity,Sea Level PressureIn,VisibilityMPH,Wind Direction,Wind SpeedMPH,Gust SpeedMPH,PrecipitationIn,Events,Conditions,WindDirDegrees,DateUTC
12:54 AM,63.0,59.0,87,30.14,10.0,WSW,6.9,-,N/A,,Overcast,250,2012-10-04 04:54:00
1:54 AM,63.0,57.9,84,30.15,10.0,West,9.2,-,N/A,,Overcast,260,2012-10-04 05:54:00
2:54 AM,61.0,57.0,87,30.15,10.0,SW,4.6,-,N/A,,Overcast,230,2012-10-04 06:54:00
3:54 AM,61.0,57.0,87,30.14,10.0,Calm,Calm,-,N/A,,Overcast,0,2012-10-04 07:54:00
4:54 AM,59.0,57.0,93,30.14,10.0,Calm,Calm,-,N/A,,Overcast,0,2012-10-04 08:54:00
5:54 AM,60.1,57.0,90,30.14,10.0,Calm,Calm,-,N/A,,Overcast,0,2012-10-04 09:54:00
6:54 AM,60.1,57.9,93,30.12,8.0,Calm,Calm,-,N/A,,Overcast,0,2012-10-04 10:54:00
7:54 AM,61.0,57.9,90,30.14,6.0,SSW,3.5,-,N/A,,Overcast,210,2012-10-04 11:54:00
8:54 AM,62.1,59.0,90,30.13,7.0,Calm,Calm,-,N/A,,Overcast,0,2012-10-04 12:54:00
9:54 AM,63.0,59.0,87,30.14,9.0,SW,6.9,-,N/A,,Overcast,230,2012-10-04 13:54:00
10:54 AM,64.9,59.0,81,30.13,10.0,SSW,5.8,-,N/A,,Overcast,210,2012-10-04 14:54:00
11:54 AM,68.0,57.9,70,30.12,10.0,SSW,8.1,-,N/A,,Overcast,210,2012-10-04 15:54:00
12:54 PM,71.1,57.9,63,30.10,10.0,SW,8.1,-,N/A,,Mostly Cloudy,230,2012-10-04 16:54:00
1:54 PM,72.0,55.0,55,30.08,10.0,WSW,12.7,-,N/A,,Mostly Cloudy,240,2012-10-04 17:54:00
2:54 PM,73.0,51.1,46,30.06,10.0,WSW,13.8,19.6,N/A,,Scattered Clouds,250,2012-10-04 18:54:00
3:54 PM,73.9,52.0,46,30.04,10.0,West,11.5,-,N/A,,Partly Cloudy,260,2012-10-04 19:54:00
4:54 PM,73.9,52.0,46,30.05,10.0,West,6.9,-,N/A,,Partly Cloudy,260,2012-10-04 20:54:00
5:54 PM,72.0,52.0,49,30.04,10.0,WSW,8.1,-,N/A,,Partly Cloudy,250,2012-10-04 21:54:00
6:54 PM,69.1,52.0,54,30.05,10.0,WSW,12.7,-,N/A,,Partly Cloudy,250,2012-10-04 22:54:00
7:54 PM,64.9,53.1,65,30.05,10.0,SW,10.4,-,N/A,,Clear,230,2012-10-04 23:54:00
8:54 PM,64.9,52.0,63,30.06,10.0,WSW,11.5,-,N/A,,Clear,240,2012-10-05 00:54:00
9:54 PM,61.0,51.1,70,30.06,10.0,SW,9.2,-,N/A,,Clear,230,2012-10-05 01:54:00
10:54 PM,60.1,51.1,72,30.05,10.0,SSW,6.9,-,N/A,,Clear,210,2012-10-05 02:54:00
11:54 PM,59.0,51.1,75,30.04,10.0,South,4.6,-,N/A,,Clear,190,2012-10-05 03:54:00